Abilene, TX

7:55 AM CST on December 03, 2016 (GMT -0600)
Abilene Regional

Weather History for KABI - January, 2014

Change the Weather History Date:

Saturday, January 11, 2014

  Actual Average Record
Temperature  
Mean Temperature 49 °F 44 °F  
Max Temperature 69 °F 56 °F 82 °F (1907)
Min Temperature 29 °F 33 °F 1 °F (1918)
Degree Days  
Heating Degree Days 16 20  
Month to date heating degree days 250 230  
Since 1 July heating degree days 1420 1275  
Cooling Degree Days 0 0  
Month to date cooling degree days 0 0  
Year to date cooling degree days 0 0  
Moisture  
Dew Point 23 °F    
Average Humidity 46    
Maximum Humidity 78    
Minimum Humidity 13    
Precipitation  
Precipitation 0.00 in 0.02 in 0.83 in (1939)
Month to date precipitation T 0.32  
Year to date precipitation T 0.32  
Sea Level Pressure  
Sea Level Pressure 30.05 in    
Wind  
Wind Speed 5 mph (SSW)    
Max Wind Speed 15 mph    
Max Gust Speed 18 mph    
Visibility 10 miles    
Events      
T = Trace of Precipitation, MM = Missing Value Source: NWS Daily Summary

Daily Weather History Graph

Daily Weather History Graph

Search for Another Location

Airport or City:

Trip Planner

Search our weather history database for the weather conditions in past years. The results will help you decide how hot, cold, wet, or windy it might be!

Date:

Astronomy

Jan. 11, 2014 Rise Set
Actual Time 7:40 AM CST 5:52 PM CST
Civil Twilight 7:14 AM CST 6:19 PM CST
Nautical Twilight 6:43 AM CST 6:49 PM CST
Astronomical Twilight 6:14 AM CST 7:19 PM CST
Moon 2:35 PM CST (1/11) 3:50 AM CST (1/11)
Length of Visible Light 11h 05m
Length of Day
10h 11m
Waxing Gibbous, 83% of the Moon is Illuminated
Jan 11
Waxing Gibbous
Jan 15
Full
Jan 23
Last Quarter
Jan 30
New
Feb 6
First Quarter

Hourly Weather History & Observations

Time (CST) Temp. Windchill Dew Point Humidity Pressure Visibility Wind Dir Wind Speed Gust Speed Precip Events Conditions
12:52 AM 43.0 °F - 27.0 °F 53% 29.88 in 10.0 mi Calm Calm - N/A   Clear
1:52 AM 39.0 °F - 26.1 °F 60% 29.91 in 10.0 mi Calm Calm - N/A   Clear
2:52 AM 41.0 °F - 27.0 °F 57% 29.93 in 10.0 mi Calm Calm - N/A   Clear
3:52 AM 34.0 °F 29.8 °F 25.0 °F 70% 29.96 in 10.0 mi South 4.6 mph - N/A   Clear
4:52 AM 36.0 °F - 26.1 °F 67% 29.99 in 10.0 mi Calm Calm - N/A   Clear
5:52 AM 33.1 °F - 25.0 °F 72% 30.03 in 10.0 mi Calm Calm - N/A   Clear
6:52 AM 30.0 °F 23.2 °F 24.1 °F 79% 30.08 in 10.0 mi SSW 6.9 mph - N/A   Clear
7:52 AM 34.0 °F - 26.1 °F 73% 30.11 in 10.0 mi Calm Calm - N/A   Clear
8:52 AM 37.9 °F 35.5 °F 28.0 °F 68% 30.14 in 10.0 mi South 3.5 mph - N/A   Clear
9:52 AM 46.9 °F - 28.0 °F 48% 30.17 in 10.0 mi Calm Calm - N/A   Clear
10:52 AM 55.0 °F - 26.1 °F 33% 30.17 in 10.0 mi West 4.6 mph - N/A   Clear
11:52 AM 61.0 °F - 21.0 °F 21% 30.14 in 10.0 mi WSW 4.6 mph - N/A   Clear
12:52 PM 64.9 °F - 18.0 °F 16% 30.10 in 10.0 mi West 10.4 mph - N/A   Clear
1:52 PM 66.0 °F - 15.1 °F 14% 30.08 in 10.0 mi WNW 5.8 mph - N/A   Clear
2:52 PM 68.0 °F - 15.1 °F 13% 30.05 in 10.0 mi Variable 4.6 mph - N/A   Clear
3:52 PM 66.9 °F - 19.9 °F 17% 30.06 in 10.0 mi SSW 11.5 mph - N/A   Clear
4:52 PM 66.0 °F - 17.1 °F 15% 30.05 in 10.0 mi South 11.5 mph - N/A   Clear
5:52 PM 60.1 °F - 21.0 °F 22% 30.06 in 10.0 mi South 6.9 mph - N/A   Clear
6:52 PM 52.0 °F - 21.0 °F 30% 30.07 in 10.0 mi SE 6.9 mph - N/A   Clear
7:52 PM 48.0 °F - 21.9 °F 36% 30.06 in 10.0 mi SSE 8.1 mph - N/A   Clear
8:52 PM 48.9 °F - 21.9 °F 35% 30.06 in 10.0 mi SSE 10.4 mph - N/A   Clear
9:52 PM 48.9 °F - 21.0 °F 33% 30.05 in 10.0 mi South 9.2 mph - N/A   Clear
10:52 PM 51.1 °F - 21.0 °F 31% 30.03 in 10.0 mi South 8.1 mph - N/A   Clear
11:52 PM 53.1 °F - 21.0 °F 29% 30.00 in 10.0 mi South 12.7 mph - N/A   Clear